When you browse on this site, cookies collect data to enhance your experience and personalize the content and advertising you see.
Visit our Privacy Policy to learn more. By continuing to use the site, you agree to this use of cookies and data.
  • In Latvia
  • List of Countries
  • For 7 days
  • Water Temperature
  • Weather Map
  • Weather Widgets
  • user-avatar
    Login

    Hourly Weather Kostkow

    Today, 18 August, Sunday

    Time Temperature Precipitation Wind Pressure Humidity
    00:00 +17°C° 0 mm 2 mps 746 mmHg 72%
    01:00 +17°C° 0 mm 2 mps 746 mmHg 74%
    02:00 +16°C° 0 mm 1 mps 746 mmHg 76%
    03:00 +16°C° 0 mm 2 mps 746 mmHg 78%
    04:00 +16°C° 0 mm 2 mps 745 mmHg 79%
    05:00 +15°C° 0 mm 2 mps 745 mmHg 81%
    06:00 +17°C° 0 mm 2 mps 745 mmHg 79%
    07:00 +18°C° 0 mm 2 mps 745 mmHg 77%
    08:00 +19°C° 0 mm 2 mps 745 mmHg 75%
    09:00 +21°C° 0 mm 2 mps 745 mmHg 70%
    10:00 +22°C° 0 mm 3 mps 745 mmHg 65%
    11:00 +25°C° 0 mm 3 mps 746 mmHg 60%
    12:00 +26°C° 0 mm 3 mps 745 mmHg 57%
    13:00 +27°C° 0 mm 4 mps 745 mmHg 54%
    14:00 +27°C° 0 mm 4 mps 745 mmHg 52%
    15:00 +27°C° 0 mm 4 mps 745 mmHg 55%
    16:00 +27°C° 0 mm 4 mps 745 mmHg 59%
    17:00 +27°C° 0 mm 3 mps 745 mmHg 62%
    18:00 +25°C° 0 mm 3 mps 745 mmHg 66%
    19:00 +24°C° 0 mm 3 mps 745 mmHg 70%
    20:00 +22°C° 0 mm 3 mps 745 mmHg 74%
    21:00 +21°C° 0 mm 3 mps 745 mmHg 73%
    22:00 +21°C° 0 mm 3 mps 745 mmHg 72%
    23:00 +20°C° 0 mm 3 mps 746 mmHg 71%

    Tomorrow, 19 August, Monday

    Time Temperature Precipitation Wind Pressure Humidity
    00:00 +20°C° 0 mm 3 mps 746 mmHg 71%
    01:00 +19°C° 0 mm 3 mps 746 mmHg 71%
    02:00 +19°C° 0 mm 3 mps 746 mmHg 71%
    03:00 +19°C° 0 mm 3 mps 746 mmHg 70%
    04:00 +19°C° 0 mm 3 mps 746 mmHg 70%
    05:00 +19°C° 0 mm 3 mps 746 mmHg 70%
    06:00 +20°C° 0 mm 3 mps 746 mmHg 69%
    07:00 +21°C° 0 mm 3 mps 746 mmHg 68%
    08:00 +22°C° 0 mm 3 mps 747 mmHg 68%
    09:00 +25°C° 0 mm 3 mps 747 mmHg 64%
    10:00 +27°C° 0 mm 3 mps 747 mmHg 60%
    11:00 +28°C° 0 mm 3 mps 747 mmHg 56%
    12:00 +29°C° 0 mm 3 mps 747 mmHg 55%
    13:00 +29°C° 0 mm 3 mps 747 mmHg 54%
    14:00 +30°C° 0 mm 3 mps 747 mmHg 54%
    15:00 +30°C° 0 mm 3 mps 747 mmHg 56%
    16:00 +30°C° 0 mm 3 mps 747 mmHg 58%
    17:00 +30°C° 0 mm 3 mps 747 mmHg 60%
    18:00 +28°C° 0 mm 2 mps 747 mmHg 65%
    19:00 +26°C° 0 mm 2 mps 748 mmHg 69%
    20:00 +25°C° 0 mm 2 mps 748 mmHg 74%
    21:00 +24°C° 0.2 mm 2 mps 748 mmHg 77%
    22:00 +23°C° 0.2 mm 2 mps 748 mmHg 80%
    23:00 +21°C° 0.2 mm 2 mps 749 mmHg 83%

    Day after tomorrow, 20 August, Tuesday

    Time Temperature Precipitation Wind Pressure Humidity
    00:00 +21°C° 0.3 mm 1 mps 749 mmHg 86%
    01:00 +21°C° 0.3 mm 1 mps 749 mmHg 90%
    02:00 +20°C° 0.3 mm 1 mps 749 mmHg 93%
    03:00 +20°C° 0 mm 1 mps 749 mmHg 94%
    04:00 +20°C° 0 mm 1 mps 749 mmHg 94%
    05:00 +19°C° 0 mm 2 mps 750 mmHg 95%
    06:00 +21°C° 0 mm 1 mps 750 mmHg 92%
    07:00 +21°C° 0 mm 1 mps 750 mmHg 88%
    08:00 +22°C° 0 mm 1 mps 750 mmHg 85%
    09:00 +24°C° 0 mm 1 mps 750 mmHg 78%
    10:00 +25°C° 0 mm 1 mps 750 mmHg 72%
    11:00 +27°C° 0 mm 1 mps 751 mmHg 66%
    12:00 +27°C° 0 mm 1 mps 750 mmHg 62%
    13:00 +28°C° 0 mm 2 mps 750 mmHg 59%
    14:00 +29°C° 0 mm 2 mps 750 mmHg 56%
    15:00 +29°C° 0 mm 2 mps 750 mmHg 58%
    16:00 +29°C° 0 mm 2 mps 750 mmHg 59%
    17:00 +29°C° 0 mm 2 mps 750 mmHg 61%
    18:00 +27°C° 0.6 mm 2 mps 750 mmHg 68%
    19:00 +26°C° 0.6 mm 2 mps 750 mmHg 74%
    20:00 +24°C° 0.6 mm 2 mps 750 mmHg 81%
    21:00 +24°C° 0.1 mm 2 mps 750 mmHg 83%
    22:00 +23°C° 0.1 mm 2 mps 750 mmHg 85%
    23:00 +23°C° 0.1 mm 2 mps 750 mmHg 88%

    21 August, Wednesday

    Time Temperature Precipitation Wind Pressure Humidity
    00:00 +21°C° 0.1 mm 2 mps 749 mmHg 89%
    01:00 +21°C° 0.1 mm 2 mps 749 mmHg 91%
    02:00 +20°C° 0.1 mm 2 mps 749 mmHg 92%
    03:00 +20°C° 0 mm 2 mps 748 mmHg 91%
    04:00 +21°C° 0 mm 1 mps 748 mmHg 90%
    05:00 +20°C° 0 mm 1 mps 748 mmHg 89%
    06:00 +22°C° 0 mm 1 mps 748 mmHg 86%
    07:00 +23°C° 0 mm 1 mps 748 mmHg 83%
    08:00 +24°C° 0 mm 1 mps 748 mmHg 79%
    09:00 +25°C° 0 mm 3 mps 749 mmHg 78%
    10:00 +26°C° 0 mm 4 mps 749 mmHg 76%
    11:00 +27°C° 0 mm 5 mps 749 mmHg 75%
    12:00 +26°C° 0 mm 6 mps 750 mmHg 75%
    13:00 +26°C° 0 mm 6 mps 750 mmHg 74%
    14:00 +24°C° 0 mm 7 mps 750 mmHg 74%
    15:00 +23°C° 0 mm 6 mps 751 mmHg 75%
    16:00 +22°C° 0 mm 6 mps 751 mmHg 76%
    17:00 +21°C° 0 mm 6 mps 751 mmHg 78%
    18:00 +20°C° 0 mm 5 mps 752 mmHg 78%
    19:00 +19°C° 0 mm 4 mps 752 mmHg 79%
    20:00 +17°C° 0 mm 3 mps 753 mmHg 80%
    21:00 +17°C° 0 mm 3 mps 753 mmHg 81%
    22:00 +17°C° 0 mm 3 mps 753 mmHg 82%
    23:00 +16°C° 0 mm 3 mps 754 mmHg 84%

    22 August, Thursday

    Time Temperature Precipitation Wind Pressure Humidity
    00:00 +16°C° 0 mm 3 mps 754 mmHg 84%
    01:00 +16°C° 0 mm 2 mps 753 mmHg 85%
    02:00 +15°C° 0 mm 2 mps 753 mmHg 86%
    03:00 +15°C° 0 mm 2 mps 753 mmHg 89%
    04:00 +14°C° 0 mm 2 mps 753 mmHg 93%
    05:00 +13°C° 0 mm 2 mps 753 mmHg 96%
    06:00 +14°C° 0 mm 2 mps 753 mmHg 91%
    07:00 +14°C° 0 mm 3 mps 754 mmHg 86%
    08:00 +16°C° 0 mm 3 mps 754 mmHg 82%
    09:00 +17°C° 0 mm 3 mps 754 mmHg 77%
    10:00 +19°C° 0 mm 4 mps 754 mmHg 73%
    11:00 +20°C° 0 mm 4 mps 754 mmHg 69%
    12:00 +21°C° 0 mm 4 mps 754 mmHg 67%
    13:00 +22°C° 0 mm 4 mps 753 mmHg 65%
    14:00 +22°C° 0 mm 4 mps 753 mmHg 63%
    15:00 +22°C° 0 mm 4 mps 753 mmHg 65%
    16:00 +22°C° 0 mm 4 mps 753 mmHg 67%
    17:00 +22°C° 0 mm 4 mps 753 mmHg 69%
    18:00 +20°C° 0 mm 3 mps 753 mmHg 72%
    19:00 +19°C° 0 mm 3 mps 753 mmHg 75%
    20:00 +18°C° 0 mm 3 mps 753 mmHg 78%
    21:00 +17°C° 0 mm 3 mps 753 mmHg 78%
    22:00 +17°C° 0 mm 3 mps 753 mmHg 79%
    23:00 +16°C° 0 mm 3 mps 754 mmHg 80%

    23 August, Friday

    Time Temperature Precipitation Wind Pressure Humidity
    00:00 +16°C° 0 mm 3 mps 754 mmHg 83%
    01:00 +14°C° 0 mm 3 mps 754 mmHg 86%
    02:00 +15°C° 0 mm 2 mps 754 mmHg 89%
    03:00 +15°C° 0 mm 2 mps 754 mmHg 91%
    04:00 +14°C° 0 mm 2 mps 754 mmHg 93%
    05:00 +14°C° 0 mm 2 mps 754 mmHg 94%
    06:00 +14°C° 0 mm 3 mps 754 mmHg 91%
    07:00 +17°C° 0 mm 3 mps 754 mmHg 87%
    08:00 +18°C° 0 mm 3 mps 754 mmHg 83%
    09:00 +19°C° 0 mm 3 mps 754 mmHg 77%
    10:00 +21°C° 0 mm 3 mps 754 mmHg 71%
    11:00 +23°C° 0 mm 4 mps 754 mmHg 65%
    12:00 +23°C° 0 mm 4 mps 754 mmHg 63%
    13:00 +25°C° 0 mm 4 mps 754 mmHg 61%
    14:00 +25°C° 0 mm 4 mps 754 mmHg 59%
    15:00 +25°C° 0 mm 4 mps 753 mmHg 60%
    16:00 +25°C° 0 mm 3 mps 753 mmHg 62%
    17:00 +24°C° 0 mm 3 mps 753 mmHg 64%
    18:00 +22°C° 0 mm 3 mps 753 mmHg 68%
    19:00 +21°C° 0 mm 3 mps 753 mmHg 72%
    20:00 +19°C° 0 mm 3 mps 753 mmHg 76%
    21:00 +18°C° 0 mm 3 mps 753 mmHg 76%
    22:00 +17°C° 0 mm 3 mps 754 mmHg 75%
    23:00 +17°C° 0 mm 3 mps 754 mmHg 74%
    Show more